Location: Huppendorf
(49.9333°N, 11.1500°E)
Time: 03:50:04
(UTC+00:00)

STARLINK-80 - Pass Details

Date: 27 February 2020
Orbit: 490 x 494 km, 53.0° (Epoch: 29 March)

Event Time Altitude Azimuth Distance (km) Brightness Sun altitude
Rises 17:38:53 0° 289° (WNW) 2,582 8.5 -8.1°
Reaches altitude 10° 17:41:05 10° 292° (WNW) 1,698 7.3 -8.4°
Maximum altitude 17:44:54 69° 16° (NNE) 534 3.5 -9.1°
Enters shadow 17:48:16 13° 99° (E) 1,513 5.2 -9.6°
